Temperature
16 16 16 16 16 16 17 17 17 17 17 17 17 17 17 17 17 17 17 17 17 16 16 16 16 16 16 16 16 16 16 16 16 16 16 16 16 16 16 16 15 15 15
16 16 16 16 16 16 16 17 17 17 17 17 17 17 17 17 17 17 17 16 16 16 16 16 16 16 16 16 16 16 16 16 16 16 16 16 16 16 15 15 15 15 15
16 16 16 16 16 16 16 16 16 17 17 17 17 17 17 17 16 16 16 16 16 16 16 16 16 16 16 16 16 16 16 16 16 16 15 15 15 15 15 15 15 15 15
16 16 16 16 16 16 16 16 16 16 16 16 17 17 17 16 16 16 16 16 16 16 16 16 16 16 16 15 15 15 15 16 16 15 15 14 14 15 15 15 15 15 15
15 15 15 16 16 16 16 16 16 16 16 16 16 16 16 16 16 16 16 16 16 16 16 16 15 15 15 15 15 15 15 15 15 15 14 14 14 14 14 14 14 14 14
14 14 15 15 15 15 16 16 16 16 16 16 16 16 16 16 16 16 16 15 15 15 15 15 15 15 15 15 15 15 15 15 15 14 14 14 14 14 14 14 14 14 14
14 14 14 15 15 15 15 15 15 15 15 15 15 16 16 16 16 15 15 15 15 15 15 15 15 15 15 15 14 14 14 14 14 14 14 14 14 14 14 14 14 14 13
14 14 14 15 15 15 15 15 15 15 15 15 15 15 15 15 15 15 15 15 15 15 15 15 15 15 14 14 14 14 14 14 14 13 13 13 13 13 13 13 13 13 13
14 14 14 14 14 15 15 15 15 15 15 15 15 15 15 15 15 15 15 15 15 15 15 15 14 14 14 14 14 14 14 14 13 13 13 13 13 13 13 13 13 13 13
14 14 14 14 14 14 14 14 15 15 15 15 15 15 15 15 15 15 15 15 14 14 14 14 14 14 14 14 13 13 13 13 13 13 13 13 13 13 12 13 12 12 12
14 14 14 14 14 14 14 14 14 14 14 14 14 14 14 14 14 14 14 14 14 14 14 14 14 14 13 13 13 13 13 12 12 12 12 12 12 12 12 12 12 12 12
13 14 14 14 14 14 14 14 14 14 14 14 14 14 14 14 14 14 14 14 14 14 14 14 13 13 13 13 13 13 12 12 12 12 12 12 12 12 12 12 12 11 11
13 14 14 14 14 14 14 14 14 14 14 14 14 14 14 14 14 14 13 13 13 13 13 13 13 13 12 12 12 12 12 12 12 12 12 12 12 11 11 11 11 11 11
13 13 13 13 13 13 13 13 13 13 13 13 14 13 13 13 13 13 13 13 13 13 13 13 13 12 12 12 12 12 12 12 12 11 11 11 11 11 11 11 11 11 10
13 13 13 13 13 13 13 13 13 13 13 13 13 13 13 13 13 13 13 13 13 13 12 12 12 12 12 12 12 12 11 11 11 11 11 11 11 11 11 11 10 10 10
13 13 13 13 13 13 13 13 13 13 13 13 13 13 13 13 12 12 12 12 12 12 12 12 12 12 11 11 11 11 11 11 11 11 11 11 11 11 10 10 10 10 10
13 13 13 13 12 12 12 12 12 13 12 12 12 12 12 12 12 12 12 12 12 12 12 12 11 11 11 11 11 11 11 10 10 10 10 10 10 10 10 10 10 10 9
12 12 12 12 12 12 12 12 12 12 12 12 12 12 12 12 12 12 11 12 12 11 11 11 11 11 11 11 10 10 10 10 10 10 10 10 9 9 9 9 9 9 9
12 12 12 12 12 12 12 12 12 12 12 12 11 11 11 11 11 11 11 11 11 11 11 11 11 10 10 10 10 10 10 10 10 9 9 9 9 9 8 8 9 9 8
12 12 12 12 12 12 11 11 11 11 11 11 11 11 11 11 11 11 11 11 11 11 10 10 10 10 10 10 10 9 9 9 9 9 8 8 8 8 8 8 8 8 8
12 12 12 11 11 11 11 11 11 11 11 11 11 11 11 11 10 10 10 10 10 10 10 10 9 9 9 9 9 8 8 8 8 8 8 8 8 7 7 7 7 7 7
12 12 12 11 11 11 11 11 11 11 11 10 10 10 10 10 10 10 10 10 10 10 9 9 9 9 9 8 8 7 7 7 7 7 7 7 7 7 7 7 7 6 6
12 12 12 11 11 11 11 11 11 10 10 10 10 10 10 10 9 9 9 9 9 9 9 9 8 8 8 8 7 7 6 7 6 7 7 7 6 6 6 6 6 6 6
12 12 11 11 11 11 11 11 11 10 10 10 10 10 10 9 9 9 9 9 9 9 8 8 8 7 7 7 7 7 6 6 5 5 6 6 6 6 6 6 6 5 5
11 11 11 11 11 11 11 11 10 10 10 10 10 9 9 9 9 9 8 8 8 8 8 8 7 7 7 7 7 6 6 6 5 5 5 5 5 5 5 5 5 5 5
10 11 11 10 10 10 10 10 10 10 10 9 9 9 9 9 9 8 8 8 8 8 7 7 7 7 7 6 6 6 6 5 5 4 4 4 4 5 5 5 4 4 4
Wind_Speed
10 12 13 14 14 14 14 14 14 14 14 14 14 13 13 13 13 12 12 12 11 11 11 11 10 10 10 10 10 10 10 10 10 9 8 8 8 8 7 6 4 5 7
13 14 15 15 15 14 14 14 14 14 14 14 14 13 13 12 12 12 11 11 11 10 10 10 10 10 10 9 9 9 10 10 9 9 7 7 8 7 7 6 6 6 6
14 14 16 15 15 15 14 14 14 14 14 14 13 13 13 12 11 11 11 10 10 10 10 10 10 10 10 9 9 9 9 8 8 6 4 4 6 7 6 6 6 5 5
14 14 15 16 15 15 15 14 14 14 14 13 13 12 12 12 11 11 11 11 10 10 10 10 10 10 10 9 9 8 8 7 6 4 3 5 5 6 6 6 5 5 5
13 13 15 16 15 15 15 14 14 14 13 13 13 12 12 12 11 11 11 11 10 10 10 9 9 9 9 9 9 8 7 6 5 3 4 4 4 6 6 6 5 5 5
13 13 15 15 15 15 14 14 14 13 13 13 12 12 12 11 11 11 11 11 10 10 10 9 9 8 8 8 7 7 7 6 3 4 4 4 4 6 6 5 5 5 5
13 13 15 14 15 15 14 14 13 13 13 12 12 11 11 11 11 10 10 10 10 9 9 9 8 8 8 7 7 7 6 5 4 4 4 4 5 6 6 6 6 6 6
12 12 14 14 14 14 14 14 13 13 13 12 11 11 11 11 10 10 10 10 10 9 9 9 8 8 8 7 7 7 6 4 3 3 4 5 6 6 6 6 6 6 7
12 12 12 13 13 14 14 14 13 13 12 12 11 11 11 11 11 10 10 10 9 9 8 8 8 8 8 8 7 7 6 4 3 3 4 4 7 7 6 6 7 7 7
10 11 11 12 12 12 13 13 13 13 13 12 12 12 12 11 11 10 10 10 9 9 8 8 8 8 7 7 7 6 4 2 3 3 3 5 7 7 7 7 7 7 7
10 10 10 10 11 11 11 12 13 13 12 12 11 11 9 8 8 8 10 10 9 9 9 8 8 7 6 6 6 4 2 3 4 4 5 7 7 7 8 8 7 7 8
12 11 10 10 10 10 10 10 9 9 9 8 8 8 7 6 7 8 9 9 9 8 8 7 6 5 3 3 3 2 3 4 3 4 5 8 8 8 8 8 8 8 8
13 11 10 10 10 9 8 8 7 7 7 7 7 7 6 6 6 5 5 5 5 5 5 4 3 4 3 3 3 4 4 4 3 3 5 8 8 8 8 8 8 9 9
12 11 10 10 9 9 8 7 7 6 5 5 6 6 5 4 4 4 3 3 3 3 3 3 3 3 4 4 3 3 3 3 3 3 5 8 8 8 8 8 9 9 10
12 11 11 10 10 9 8 6 6 6 5 6 5 5 5 4 4 4 3 3 3 3 2 2 2 3 3 3 3 3 3 3 3 3 3 7 8 8 8 9 9 10 11
13 12 11 11 10 9 8 7 6 6 6 6 5 5 5 4 4 3 3 3 2 2 2 2 2 2 2 2 3 3 2 2 2 3 3 4 7 8 9 9 10 11 11
14 12 12 11 10 10 8 7 6 6 6 5 5 5 5 4 4 3 2 2 2 2 1 2 2 2 2 2 2 3 2 2 2 3 3 3 4 6 8 9 10 11 12
13 13 12 9 10 10 8 7 6 6 6 5 5 5 5 4 4 3 2 2 2 1 1 1 1 2 2 2 2 2 2 1 2 2 2 3 4 5 7 9 11 11 12
14 13 13 11 11 10 8 7 6 6 5 5 5 5 4 4 4 3 2 2 1 1 1 1 1 1 2 3 3 2 2 1 1 1 2 3 4 5 6 7 9 10 12
13 13 13 12 11 10 8 6 5 5 5 5 5 4 5 4 4 3 3 2 2 1 1 1 2 2 2 2 2 2 2 1 1 2 2 3 3 5 7 8 8 8 11
13 14 14 13 12 10 8 7 6 6 5 4 4 5 5 4 4 3 2 2 1 1 1 1 1 2 2 2 2 2 1 1 2 2 2 3 3 5 7 8 8 9 9
14 14 14 14 13 12 9 7 5 5 4 4 4 4 4 4 4 3 3 2 2 1 1 1 1 1 1 2 2 2 2 2 1 2 3 3 4 5 6 8 9 9 10
14 14 13 14 14 13 11 7 6 5 4 4 4 4 4 5 4 4 3 2 2 1 1 0 0 0 1 1 2 2 2 2 4 3 3 4 4 5 7 8 9 10 11
13 13 14 14 14 13 12 10 11 8 7 6 6 5 5 5 5 4 3 3 2 1 1 1 0 1 1 1 1 1 3 3 3 3 3 4 6 7 8 8 9 9 11
11 12 12 13 13 13 12 12 12 9 7 5 6 6 5 5 4 4 4 3 2 1 1 1 1 1 1 2 2 2 2 3 4 4 6 7 7 7 7 9 8 9 10
9 10 11 13 13 13 12 12 12 11 9 8 8 7 5 4 4 4 4 3 3 2 2 2 2 2 2 2 2 2 2 3 3 4 6 8 9 8 9 8 7 8 10
Wind_Direction
154 150 144 143 138 133 128 125 122 118 115 113 110 107 105 102 99 95 92 90 87 86 87 86 82 80 78 75 72 69 66 62 60 61 65 65 62 62 61 49 41 63 60
149 147 143 143 140 135 131 126 123 119 116 113 111 109 107 104 100 98 95 91 88 86 83 81 78 76 75 74 73 70 65 62 58 55 60 72 64 55 52 42 30 43 45
145 143 141 141 140 137 132 128 125 121 118 115 113 109 106 103 100 97 95 92 89 86 82 80 77 73 72 71 71 71 67 61 53 48 45 64 67 56 46 41 37 36 32
143 143 140 134 135 134 132 130 127 123 120 116 113 110 106 103 99 96 93 89 88 87 83 79 76 72 71 68 69 69 65 58 45 21 38 45 51 50 35 30 28 26 24
143 141 134 134 133 131 128 128 128 125 121 118 114 111 108 104 99 95 92 88 87 85 83 79 76 74 71 67 64 63 61 54 39 29 40 36 39 38 22 21 17 13 10
144 140 134 135 133 131 129 127 124 124 123 120 116 112 108 104 99 95 92 88 85 82 80 78 76 73 69 66 62 58 54 42 17 40 32 24 29 33 16 10 3 1 356
143 138 136 134 132 131 130 128 125 122 123 122 119 114 109 105 101 97 94 89 85 81 79 76 72 69 65 64 60 55 46 29 27 34 29 29 30 24 16 13 11 5 358
142 137 136 131 130 130 129 128 126 123 120 119 118 114 109 105 102 98 93 89 84 80 77 74 69 66 63 62 58 52 42 19 32 32 31 32 30 17 9 8 7 2 359
144 140 138 139 135 130 128 126 122 120 119 116 112 110 107 103 100 97 93 88 84 80 76 72 68 66 64 62 58 53 45 18 10 29 23 28 24 8 360 358 357 354 354
147 145 143 142 141 140 134 125 122 120 116 111 106 103 106 105 100 95 93 86 83 79 75 71 66 64 63 62 59 52 37 353 30 24 19 29 19 5 357 352 349 347 346
153 153 149 145 142 140 137 130 126 120 116 114 108 104 108 111 107 101 87 83 81 77 74 70 67 65 65 69 59 41 8 28 30 28 27 23 11 5 360 356 353 350 347
164 161 156 150 146 141 136 135 133 128 126 122 120 118 111 104 99 98 93 85 82 80 76 68 66 67 52 59 57 19 29 26 25 34 31 18 10 7 5 3 360 359 356
167 162 161 155 150 145 140 137 133 129 125 122 121 121 116 108 103 100 101 95 87 81 72 66 61 47 40 36 25 27 26 20 24 28 25 13 7 6 7 5 2 357 352
169 167 164 159 153 150 145 140 138 134 129 125 125 126 122 112 105 96 94 91 85 73 64 55 47 46 41 38 31 28 27 22 22 21 22 12 8 8 5 2 356 350 346
174 172 169 164 158 153 147 143 141 138 136 130 126 125 121 117 110 105 95 89 83 75 70 56 50 46 39 32 25 20 19 19 15 10 23 22 15 12 7 2 355 348 343
182 176 171 170 165 158 156 152 144 139 136 134 128 125 125 118 116 115 106 88 77 71 61 55 48 37 32 27 23 17 10 11 10 3 8 21 22 13 6 0 355 350 345
185 178 174 171 167 165 161 155 146 145 145 137 130 132 128 122 124 120 110 99 77 65 79 65 51 30 29 21 12 11 11 6 358 360 359 354 4 13 5 357 352 348 345
186 180 174 170 171 169 163 158 150 151 150 140 135 134 132 129 129 124 114 101 89 73 71 66 32 17 15 0 354 356 356 349 338 347 356 358 354 352 360 359 351 348 344
189 182 176 173 173 169 163 158 153 151 151 145 141 139 140 139 140 132 119 111 109 84 65 55 24 6 6 358 350 342 335 317 326 342 355 359 358 348 343 348 347 345 342
189 184 179 175 174 165 159 156 151 154 156 151 148 147 148 147 148 136 126 123 117 103 67 39 36 23 15 356 342 336 322 296 283 316 328 338 345 340 337 335 333 336 337
187 185 182 179 175 169 167 168 169 174 170 164 153 155 155 153 153 144 134 134 133 118 81 48 42 41 28 4 339 334 305 261 262 301 303 309 325 330 329 330 328 327 327
188 187 185 184 181 180 179 175 176 167 171 165 155 157 160 161 160 158 155 149 143 132 115 82 56 38 26 7 338 323 312 277 264 296 292 296 307 320 324 325 324 324 322
192 191 188 187 185 183 177 164 149 145 152 166 172 171 173 172 169 168 168 161 154 154 152 132 121 336 339 356 345 319 311 309 318 273 283 290 307 315 317 320 319 320 320
197 191 190 187 184 183 177 175 172 178 181 187 182 177 175 177 173 173 171 173 169 168 174 189 250 278 262 283 313 320 307 302 292 299 290 294 305 308 312 313 314 316 317
196 190 189 185 183 182 183 183 183 186 183 172 170 173 175 176 176 177 178 179 181 187 196 212 234 257 264 268 278 290 286 283 273 284 297 306 306 304 308 307 307 311 315
190 186 186 184 183 182 184 187 189 185 175 169 174 176 179 179 180 182 185 187 192 198 207 222 240 248 261 269 273 271 279 282 287 287 292 302 305 306 306 302 304 311 314
Height
1518 1520 1523 1525 1527 1529 1531 1532 1534 1535 1536 1536 1537 1538 1538 1539 1539 1539 1539 1540 1540 1540 1540 1540 1540 1540 1539 1539 1538 1538 1538 1538 1537 1537 1537 1537 1536 1536 1536 1535 1535 1535 1534
1517 1520 1522 1525 1527 1529 1531 1533 1534 1535 1536 1537 1538 1538 1539 1539 1540 1540 1540 1540 1540 1540 1540 1540 1540 1540 1540 1539 1539 1539 1538 1538 1538 1537 1537 1537 1537 1536 1536 1535 1535 1535 1534
1517 1520 1523 1525 1528 1530 1531 1533 1535 1536 1537 1538 1538 1539 1540 1540 1540 1540 1541 1541 1541 1541 1541 1540 1540 1540 1540 1539 1539 1539 1538 1538 1538 1538 1538 1538 1537 1536 1535 1535 1534 1534 1533
1517 1520 1523 1525 1528 1530 1532 1533 1535 1536 1537 1538 1539 1539 1540 1540 1541 1541 1541 1541 1541 1541 1541 1540 1540 1540 1540 1539 1539 1538 1538 1538 1537 1537 1538 1538 1537 1536 1535 1535 1534 1533 1533
1517 1520 1523 1525 1528 1530 1532 1533 1535 1536 1537 1538 1539 1540 1540 1540 1541 1541 1541 1541 1541 1541 1541 1540 1540 1540 1540 1539 1539 1538 1538 1538 1537 1537 1537 1537 1536 1535 1534 1534 1533 1532 1532
1518 1521 1523 1526 1528 1530 1532 1534 1535 1536 1537 1538 1539 1540 1540 1541 1541 1541 1541 1541 1541 1541 1540 1540 1540 1540 1539 1539 1538 1538 1538 1537 1537 1537 1537 1536 1535 1534 1534 1533 1532 1531 1531
1518 1521 1523 1525 1528 1530 1532 1533 1535 1536 1537 1538 1539 1540 1540 1541 1541 1541 1541 1541 1541 1541 1540 1540 1540 1539 1539 1538 1538 1537 1537 1537 1537 1537 1536 1535 1534 1534 1533 1532 1531 1530 1529
1518 1521 1523 1525 1528 1530 1532 1533 1535 1536 1537 1538 1539 1540 1540 1540 1541 1541 1541 1541 1540 1540 1540 1540 1539 1539 1538 1538 1537 1537 1537 1537 1536 1536 1535 1535 1534 1533 1532 1531 1530 1529 1528
1518 1521 1523 1525 1528 1530 1531 1533 1534 1536 1537 1538 1539 1540 1540 1540 1540 1541 1540 1540 1540 1540 1540 1539 1539 1538 1538 1537 1537 1536 1536 1536 1536 1535 1534 1534 1532 1532 1531 1530 1529 1528 1527
1518 1520 1523 1525 1527 1529 1531 1533 1534 1536 1537 1538 1539 1539 1540 1540 1540 1540 1540 1540 1540 1539 1539 1538 1538 1537 1537 1536 1536 1536 1535 1535 1535 1534 1533 1532 1531 1530 1529 1528 1527 1526 1525
1517 1519 1522 1524 1526 1528 1530 1532 1534 1535 1536 1537 1538 1539 1539 1540 1540 1540 1540 1539 1539 1539 1538 1538 1537 1537 1536 1536 1535 1535 1534 1534 1534 1533 1532 1531 1530 1529 1527 1526 1525 1524 1523
1515 1518 1521 1523 1525 1527 1530 1531 1533 1534 1536 1537 1537 1538 1539 1539 1539 1539 1539 1539 1539 1538 1538 1537 1537 1536 1536 1535 1534 1534 1533 1533 1532 1531 1530 1529 1528 1527 1525 1524 1523 1522 1520
1514 1517 1519 1522 1524 1526 1528 1530 1532 1533 1535 1536 1537 1537 1538 1538 1538 1538 1538 1538 1538 1537 1537 1536 1536 1535 1535 1534 1533 1533 1532 1531 1531 1530 1529 1528 1526 1525 1523 1522 1521 1519 1518
1513 1515 1518 1520 1523 1525 1527 1529 1531 1532 1534 1535 1535 1536 1537 1537 1537 1537 1537 1537 1537 1536 1536 1535 1535 1534 1534 1533 1532 1531 1531 1530 1529 1528 1527 1526 1525 1523 1521 1520 1518 1517 1515
1511 1514 1516 1519 1521 1524 1526 1528 1530 1531 1532 1533 1534 1535 1535 1536 1536 1536 1536 1536 1536 1535 1535 1534 1534 1533 1532 1532 1531 1530 1529 1528 1527 1526 1525 1524 1522 1521 1519 1518 1516 1514 1512
1509 1512 1515 1517 1520 1522 1524 1526 1528 1530 1531 1532 1533 1533 1534 1535 1535 1535 1535 1535 1534 1534 1534 1533 1532 1532 1531 1530 1529 1528 1528 1527 1526 1525 1523 1522 1520 1519 1517 1515 1513 1511 1509
1507 1510 1513 1516 1518 1521 1523 1525 1526 1528 1529 1530 1531 1532 1533 1533 1534 1534 1534 1533 1533 1533 1532 1532 1531 1531 1530 1529 1528 1527 1526 1525 1524 1523 1521 1520 1518 1516 1514 1512 1510 1508 1506
1505 1508 1511 1513 1516 1518 1521 1523 1524 1526 1528 1529 1530 1531 1531 1532 1532 1532 1532 1532 1532 1531 1531 1530 1530 1529 1528 1527 1526 1525 1524 1523 1522 1521 1519 1517 1516 1514 1512 1509 1507 1505 1503
1502 1505 1508 1511 1514 1516 1519 1521 1523 1524 1526 1527 1528 1529 1530 1530 1530 1531 1531 1530 1530 1530 1530 1529 1529 1528 1527 1526 1524 1523 1522 1521 1520 1518 1517 1515 1513 1511 1509 1507 1504 1502 1499
1499 1502 1505 1508 1511 1514 1516 1518 1520 1522 1523 1525 1526 1527 1528 1528 1529 1529 1529 1529 1528 1528 1528 1527 1527 1526 1525 1524 1522 1521 1520 1519 1517 1516 1515 1513 1511 1509 1507 1504 1502 1499 1496
1495 1498 1502 1505 1508 1511 1513 1515 1517 1519 1521 1523 1524 1525 1526 1526 1527 1527 1527 1527 1527 1526 1526 1526 1525 1524 1523 1522 1521 1519 1518 1517 1515 1514 1513 1511 1509 1507 1505 1502 1499 1496 1493
1491 1494 1497 1501 1504 1507 1510 1513 1515 1517 1519 1520 1521 1522 1523 1524 1524 1525 1525 1525 1525 1525 1524 1524 1523 1522 1521 1521 1520 1518 1517 1517 1514 1512 1511 1509 1507 1505 1502 1500 1497 1494 1490
1486 1489 1493 1496 1500 1504 1507 1510 1512 1514 1516 1517 1519 1520 1521 1522 1522 1523 1523 1523 1523 1523 1523 1522 1522 1521 1520 1520 1519 1519 1518 1515 1512 1510 1508 1506 1505 1502 1500 1497 1494 1491 1487
1481 1485 1489 1492 1496 1500 1503 1505 1508 1510 1512 1514 1516 1517 1518 1519 1520 1520 1521 1521 1521 1521 1521 1520 1520 1519 1519 1518 1517 1517 1516 1514 1513 1508 1507 1505 1502 1500 1497 1494 1491 1487 1484
1477 1481 1484 1488 1492 1495 1499 1502 1505 1507 1510 1512 1513 1514 1515 1516 1517 1518 1518 1519 1519 1519 1518 1518 1518 1518 1517 1517 1516 1514 1513 1512 1511 1508 1504 1501 1499 1497 1494 1491 1487 1484 1481
1473 1476 1480 1483 1487 1491 1494 1498 1501 1503 1506 1508 1510 1511 1513 1514 1514 1515 1516 1516 1516 1516 1516 1516 1516 1515 1515 1514 1513 1512 1511 1510 1508 1506 1502 1498 1495 1493 1490 1487 1484 1481 1477